Hyakuri AB, Japan

2:51 AM JST on November 25, 2017 (GMT +0900)
Hyakuri Aero

Weather History for RJAH - November, 2012

Change the Weather History Date:

Wednesday, November 21, 2012

  Actual Average Record
Temperature  
Mean Temperature 44 °F -  
Max Temperature 55 °F 49 °F 69 °F (2003)
Min Temperature 33 °F 35 °F 30 °F (2017)
Degree Days  
Heating Degree Days 21    
Moisture  
Dew Point 30 °F    
Average Humidity 62    
Maximum Humidity 81    
Minimum Humidity 33    
Precipitation  
Precipitation 0.00 in - - ()
Sea Level Pressure  
Sea Level Pressure 30.03 in    
Wind  
Wind Speed 3 mph ()    
Max Wind Speed 9 mph    
Max Gust Speed -    
Visibility 6.2 miles    
Events      
Averages and records for this station are not official NWS values.
T = Trace of Precipitation, MM = Missing Value Source: Averaged Metar Reports

Daily Weather History Graph

Daily Weather History Graph

Search for Another Location

Airport or City:

Trip Planner

Search our weather history database for the weather conditions in past years. The results will help you decide how hot, cold, wet, or windy it might be!

Date:

Astronomy

Nov. 21, 2012 Rise Set
Actual Time 6:21 AM JST 4:26 PM JST
Civil Twilight 5:53 AM JST 4:54 PM JST
Nautical Twilight 5:22 AM JST 5:25 PM JST
Astronomical Twilight 4:51 AM JST 5:56 PM JST
Moon 12:13 PM JST (11/21) No Moon Set
Length of Visible Light 11h 01m
Length of Day
10h 05m
First Quarter, 55% of the Moon is Illuminated
Nov 21
First Quarter
Nov 28
Full
Dec 7
Last Quarter
Dec 13
New
Dec 20
First Quarter

Hourly Weather History & Observations

Time (JST) Temp. Windchill Dew Point Humidity Pressure Visibility Wind Dir Wind Speed Gust Speed Precip Events Conditions
12:00 AM 41.0 °F - 33.8 °F 76% 29.89 in 6.2 mi North 1.2 mph - N/A   Partly Cloudy
1:00 AM 39.2 °F - 33.8 °F 81% 29.92 in 6.2 mi SW 1.2 mph - N/A   Partly Cloudy
2:00 AM 39.2 °F 35.0 °F 33.8 °F 81% 29.92 in 6.2 mi NNW 5.8 mph - N/A   Partly Cloudy
3:00 AM 39.2 °F 35.9 °F 32.0 °F 75% 29.95 in 6.2 mi NNW 4.6 mph - N/A   Partly Cloudy
4:00 AM 33.8 °F 30.8 °F 28.4 °F 81% 29.95 in 6.2 mi NNW 3.5 mph - N/A   Partly Cloudy
5:00 AM 37.4 °F 33.8 °F 30.2 °F 75% 29.98 in 6.2 mi North 4.6 mph - N/A   Partly Cloudy
6:00 AM 33.8 °F 28.6 °F 26.6 °F 75% 29.98 in 6.2 mi NE 5.8 mph - N/A   Partly Cloudy
7:00 AM 39.2 °F 35.0 °F 28.4 °F 65% 30.01 in 6.2 mi North 5.8 mph - N/A   Partly Cloudy
8:00 AM 44.6 °F - 32.0 °F 61% 30.04 in 6.2 mi Variable 2.3 mph - N/A   Partly Cloudy
9:00 AM 48.2 °F - 28.4 °F 46% 30.06 in 6.2 mi NNW 9.2 mph - N/A   Partly Cloudy
10:00 AM 51.8 °F - 28.4 °F 41% 30.06 in 6.2 mi NW 5.8 mph - N/A   Partly Cloudy
11:00 AM 53.6 °F - 28.4 °F 38% 30.04 in 6.2 mi Variable 3.5 mph - N/A   Partly Cloudy
12:00 PM 51.8 °F - 26.6 °F 38% 30.04 in 6.2 mi Variable 3.5 mph - N/A   Partly Cloudy
1:00 PM 55.4 °F - 28.4 °F 36% 30.04 in 6.2 mi West 4.6 mph - N/A   Partly Cloudy
2:00 PM 55.4 °F - 26.6 °F 33% 30.01 in 6.2 mi Variable 2.3 mph - N/A   Partly Cloudy
3:00 PM 55.4 °F - 26.6 °F 33% 30.04 in 6.2 mi NNW 3.5 mph - N/A   Partly Cloudy
4:00 PM 53.6 °F - 26.6 °F 35% 30.06 in 6.2 mi North 1.2 mph - N/A   Partly Cloudy
5:00 PM 46.4 °F - 33.8 °F 62% 30.06 in 6.2 mi South 2.3 mph - N/A   Partly Cloudy
6:00 PM 41.0 °F 39.0 °F 32.0 °F 70% 30.09 in 6.2 mi North 3.5 mph - N/A   Partly Cloudy
7:00 PM 41.0 °F - 32.0 °F 70% 30.12 in 6.2 mi Variable 1.2 mph - N/A   Partly Cloudy
8:00 PM 39.2 °F - 33.8 °F 81% 30.12 in 6.2 mi Variable 1.2 mph - N/A   Partly Cloudy
9:00 PM 39.2 °F - 33.8 °F 81% 30.09 in 6.2 mi WNW 1.2 mph - N/A   Partly Cloudy
10:00 PM 37.4 °F 34.9 °F 32.0 °F 81% 30.09 in 6.2 mi NNE 3.5 mph - N/A   Partly Cloudy
11:00 PM 39.2 °F - 32.0 °F 75% 30.09 in 6.2 mi North 2.3 mph - N/A   Mostly Cloudy